SCP
2 2 3 3 2 2 3 2 2 3 4 3 2 2 2 1 1 1 2 2 2 1 1 1 1 1 1 1 1 1 1 2 2 1 1 1 1 1 1 1 0 0 0
2 2 3 3 3 3 3 3 3 3 3 3 3 2 2 2 2 2 2 2 2 1 1 1 1 1 1 1 1 1 1 2 2 2 1 1 1 1 1 1 0 0 0
2 2 3 3 3 3 4 4 3 3 3 3 3 2 2 2 2 2 2 2 2 1 1 2 2 2 1 1 1 2 2 2 2 2 1 1 1 1 1 1 1 0 0
2 2 3 3 4 4 4 3 3 2 3 3 3 2 2 3 3 3 2 2 2 1 1 2 2 2 2 1 1 2 2 2 2 2 2 1 1 1 1 1 1 1 1
2 3 3 3 3 3 3 3 3 3 3 3 2 2 2 3 3 3 2 2 1 1 1 2 2 2 2 2 2 2 2 2 2 2 2 1 1 1 1 1 1 1 1
2 2 3 3 3 3 3 2 2 2 3 2 2 2 2 3 3 2 2 1 1 1 2 2 2 2 2 2 2 2 2 2 2 2 2 2 1 1 1 1 1 1 1
2 2 2 2 2 2 2 2 2 2 2 2 2 2 2 2 2 1 1 1 1 1 2 2 2 2 2 2 2 2 3 2 2 2 2 2 1 1 1 1 1 1 1
1 1 1 1 1 1 1 1 2 2 2 2 1 1 1 1 2 1 1 1 1 2 2 2 2 2 3 3 2 2 2 2 2 2 2 2 2 1 1 1 1 1 1
1 1 1 1 1 1 1 1 1 1 1 1 1 1 1 1 1 1 1 1 1 2 2 2 2 2 3 3 3 2 2 2 2 2 2 2 2 1 1 1 1 1 1
1 1 1 1 1 0 0 1 1 1 1 1 1 1 1 1 1 1 1 1 1 1 1 1 2 2 3 3 3 3 2 2 2 2 2 2 2 2 2 1 1 1 1
1 1 1 0 0 0 0 0 0 1 1 2 1 1 1 1 1 1 1 1 1 1 1 1 1 2 2 3 3 3 2 2 2 2 2 2 2 2 2 2 1 1 1
1 1 0 0 0 0 0 0 0 1 1 2 1 1 1 1 1 1 1 1 1 1 1 1 1 2 2 3 3 2 2 2 2 2 2 2 2 2 2 2 1 1 1
0 0 0 0 0 0 0 0 0 1 1 1 1 1 1 1 1 1 1 1 1 1 1 2 2 2 2 3 3 2 2 1 1 1 2 2 2 2 2 1 1 1 1
0 0 0 0 0 0 0 0 0 0 1 1 1 0 0 0 1 1 1 1 1 1 1 1 2 2 2 2 2 2 1 1 1 1 1 1 1 1 1 1 1 1 1
0 0 0 0 0 0 0 0 0 0 0 0 0 0 0 0 0 1 1 1 1 1 1 1 2 2 2 2 2 2 2 1 1 0 1 1 1 1 1 1 1 1 1
0 0 0 0 0 0 0 0 0 0 0 0 0 0 0 0 0 1 1 1 1 1 1 1 2 2 2 2 1 2 2 1 1 0 0 0 0 1 1 1 1 1 1
0 0 0 0 0 0 0 0 0 0 0 0 0 0 0 0 0 0 0 0 1 1 1 1 2 2 2 2 2 2 2 2 1 1 0 0 0 0 0 0 0 0 0
0 0 0 0 0 0 0 0 0 0 0 0 0 0 0 0 0 0 0 0 0 1 1 1 1 1 2 2 2 2 2 2 2 1 0 0 0 0 0 0 0 0 0
0 0 0 0 0 0 0 0 0 0 0 0 0 0 0 0 0 0 0 0 0 1 1 1 1 1 1 2 2 3 3 3 2 1 1 0 0 0 0 0 0 0 0
0 0 0 0 0 0 0 0 0 0 0 0 0 0 0 0 0 0 0 0 0 1 1 1 1 1 1 2 2 3 4 4 3 2 1 1 1 1 0 0 0 0 0
0 0 0 0 0 0 0 0 0 0 0 0 0 0 0 0 0 0 0 0 0 1 1 1 1 1 1 2 2 2 3 3 3 2 2 2 2 2 1 1 0 0 0
0 0 0 0 0 0 0 0 0 0 0 0 0 0 0 0 0 0 0 0 0 0 1 1 1 1 1 2 2 1 2 2 2 3 2 2 2 2 2 1 0 0 0
0 0 0 0 0 0 0 0 0 0 0 0 0 0 0 0 0 0 0 0 0 0 0 1 1 1 1 1 2 2 1 2 2 2 2 2 2 2 2 1 0 0 0
0 0 0 0 0 0 0 0 0 0 0 0 0 0 0 0 0 0 0 0 0 0 0 0 1 1 1 1 2 2 2 2 2 2 2 1 1 1 1 1 0 0 0
0 0 0 0 0 0 0 0 0 0 0 0 0 0 0 0 0 0 0 0 0 0 0 0 0 0 0 1 1 1 2 2 1 1 1 1 1 1 1 0 0 0 0
0 0 0 0 0 0 0 0 0 0 0 0 0 0 0 0 0 0 0 0 0 0 0 0 0 0 0 0 1 1 1 1 1 1 1 1 1 1 1 1 0 0 0
Wind_Speed
3 3 2 3 4 4 4 5 6 6 7 7 8 9 10 10 10 9 5 11 13 14 15 15 16 17 18 18 18 18 18 17 16 15 14 14 14 14 13 13 12 11 11
2 2 3 3 4 4 4 5 6 6 6 7 9 10 10 10 10 11 10 9 14 15 16 17 17 18 19 20 19 19 19 18 17 16 15 15 14 14 14 14 13 12 11
1 2 2 3 3 3 4 5 6 6 7 8 9 10 9 10 11 12 11 9 10 15 17 17 17 17 18 20 20 20 20 19 18 18 17 16 15 15 14 14 14 13 12
1 1 2 2 2 3 3 4 5 5 6 7 7 7 8 8 12 12 12 11 10 9 14 19 18 17 18 20 21 21 21 20 19 19 19 18 17 16 15 15 14 14 13
1 2 2 2 3 3 4 5 4 5 6 6 7 8 8 9 10 11 12 13 12 11 10 13 18 18 20 21 21 22 22 21 21 21 21 20 19 18 17 16 15 15 14
1 3 2 2 4 4 4 4 5 5 6 6 8 8 8 9 10 10 12 12 12 14 14 13 12 15 21 20 20 21 22 22 22 22 22 22 21 19 18 18 17 16 16
1 2 4 2 4 4 5 6 6 6 6 5 7 8 8 11 10 9 10 10 12 14 13 13 11 10 11 20 20 21 23 23 23 23 22 22 21 20 20 19 18 17 17
3 3 3 5 4 4 5 6 6 6 6 5 6 8 8 7 7 8 8 9 11 10 12 14 13 12 11 10 14 22 23 24 25 24 23 22 21 21 21 21 19 19 18
4 4 4 6 5 7 6 6 7 7 7 7 5 6 7 6 6 4 7 7 8 8 9 9 12 13 14 11 11 19 24 23 24 25 24 23 22 21 22 22 21 20 19
5 5 6 6 6 8 7 8 7 6 7 8 6 5 7 7 7 6 5 5 6 7 8 8 10 11 13 12 12 14 21 22 23 24 24 24 23 23 22 23 23 22 21
6 6 6 6 6 8 8 8 8 9 8 9 8 6 6 6 8 8 8 6 5 6 6 7 8 8 10 11 11 15 17 21 22 22 23 23 23 23 23 23 24 24 23
6 7 7 6 8 8 7 8 8 10 9 9 9 8 7 7 6 6 8 8 7 6 6 5 6 7 8 10 13 14 16 19 20 20 21 21 22 22 23 24 24 24 24
6 5 7 7 8 7 8 8 8 9 9 9 9 9 8 8 7 7 8 8 8 6 6 5 6 6 7 7 9 11 14 17 18 19 19 19 20 21 21 22 23 23 23
7 7 8 8 9 9 9 8 9 9 8 9 11 10 8 9 7 7 7 7 8 7 6 6 4 5 5 5 7 10 11 15 17 17 18 18 19 19 20 20 21 20 20
7 8 8 9 9 9 9 9 9 9 9 10 11 10 10 8 8 7 7 7 7 8 7 5 3 3 4 5 6 8 9 13 16 16 17 17 17 17 18 19 19 18 18
8 9 10 10 9 9 9 10 10 9 9 9 9 10 10 9 8 7 8 7 7 8 8 5 3 3 4 4 5 7 8 9 13 15 16 16 16 16 17 17 17 17 17
9 9 10 10 10 10 10 9 11 11 11 11 11 11 11 11 9 9 8 8 8 7 8 7 4 4 4 5 4 5 6 7 8 13 14 14 15 16 16 16 17 16 16
9 10 10 10 11 11 10 11 11 11 11 12 12 12 12 10 11 11 9 9 8 7 8 9 6 5 5 4 4 5 5 6 6 10 13 13 13 14 15 15 15 15 14
10 10 10 10 11 11 11 11 11 12 12 12 12 12 12 12 12 11 11 10 9 9 8 8 7 4 4 4 3 4 3 3 4 7 10 11 11 12 13 13 13 13 13
10 10 10 10 11 11 11 11 11 11 12 12 12 12 13 13 13 12 11 11 10 10 9 8 7 6 4 4 3 3 3 3 4 5 6 7 9 10 11 11 12 12 12
10 10 10 11 11 10 10 9 10 11 12 12 12 12 13 12 10 9 10 10 10 10 9 9 8 7 5 4 4 3 3 3 3 3 5 6 7 7 8 10 11 11 11
10 10 10 11 11 9 4 5 10 13 13 13 13 12 13 13 13 14 14 14 13 12 11 10 9 8 7 6 4 4 4 4 3 4 4 5 5 6 6 6 9 10 10
10 10 10 11 11 10 6 7 9 12 14 13 13 12 11 11 11 13 14 17 17 17 16 13 12 10 8 7 6 7 7 6 4 5 5 4 4 4 4 5 10 9 10
9 10 10 11 11 10 6 7 8 12 14 14 13 13 13 13 12 12 13 13 14 14 15 14 13 12 9 7 7 7 6 5 4 5 5 3 3 3 4 5 9 9 9
10 10 10 11 11 11 7 6 8 11 11 13 12 12 12 13 10 8 12 14 13 12 11 11 10 9 6 5 5 5 6 7 5 5 4 4 4 3 3 4 6 9 9
10 10 10 10 11 11 6 5 7 9 10 10 10 10 10 12 10 7 12 13 14 13 11 10 11 11 11 10 10 9 7 7 5 4 5 5 6 5 4 3 4 6 7
Wind_Direction
259 261 263 267 268 263 253 250 253 254 253 249 249 245 243 244 248 250 234 188 201 216 223 225 223 218 214 209 207 205 204 203 200 196 195 194 192 189 188 187 185 182 181
260 261 252 263 269 274 279 274 266 259 255 253 249 248 247 246 242 242 246 220 207 214 222 225 225 223 218 214 210 208 207 206 203 199 198 198 196 194 194 194 191 188 186
268 272 267 262 282 283 271 265 269 264 257 255 255 253 249 248 247 243 243 244 228 214 218 224 225 223 221 218 214 211 210 209 205 202 200 200 199 198 197 197 196 193 191
290 282 294 295 305 284 280 275 264 268 266 266 265 262 257 251 249 247 243 236 238 235 216 216 220 221 222 220 218 215 213 211 208 205 203 202 202 201 199 200 199 197 195
350 315 322 344 293 291 291 286 290 283 277 273 269 257 254 252 251 249 248 244 237 235 236 210 211 218 221 221 220 217 216 214 211 208 206 205 205 204 202 202 201 200 199
319 315 288 313 299 292 290 293 293 279 282 278 278 273 259 255 251 247 247 245 238 233 232 233 216 214 218 221 218 216 216 215 214 212 210 208 208 206 204 204 203 202 202
321 300 307 313 293 296 302 296 291 280 276 288 282 274 259 246 243 245 242 243 239 234 233 232 229 224 213 213 214 212 214 213 214 213 212 210 209 208 206 205 205 204 204
283 274 299 294 297 297 278 284 285 292 292 289 289 291 280 258 228 239 240 238 242 236 233 231 228 225 229 216 207 209 212 212 213 214 214 213 211 209 207 207 207 206 206
272 288 286 290 302 288 287 290 285 278 288 287 278 285 291 293 309 254 243 244 242 238 237 237 230 227 225 226 215 205 210 209 210 212 214 214 212 209 207 208 208 208 208
280 280 281 283 285 288 290 276 277 283 277 279 272 261 271 292 289 291 265 247 243 243 245 243 236 228 224 224 220 212 204 205 206 210 213 213 212 209 208 209 210 210 210
274 278 283 286 284 281 286 289 290 278 276 275 281 278 274 267 261 271 283 283 268 251 244 243 238 235 230 225 223 218 201 201 204 208 211 212 211 210 209 210 212 213 213
278 279 283 285 282 284 285 278 278 271 270 276 277 277 275 277 281 280 280 281 278 270 258 250 240 233 233 229 227 217 199 198 201 205 208 208 209 210 210 211 213 214 215
292 297 299 293 288 286 283 281 274 276 273 268 264 267 271 273 279 281 282 285 282 278 264 251 239 234 232 229 227 214 204 198 199 202 204 206 207 208 209 210 212 214 215
305 314 296 288 286 284 282 280 277 269 266 267 266 268 270 268 270 271 278 287 285 275 261 254 241 232 237 233 227 214 210 198 198 199 203 205 205 205 205 206 208 210 212
298 298 294 289 287 284 283 282 275 277 273 268 267 260 257 264 262 265 268 269 279 284 278 267 251 237 246 241 222 219 220 200 198 199 201 202 202 202 201 201 202 204 205
295 292 288 287 285 283 279 276 276 269 269 268 267 273 270 266 265 259 260 263 262 271 278 280 283 282 277 262 228 226 225 200 197 196 197 198 198 198 198 198 198 200 202
294 289 287 285 283 281 279 276 274 278 271 270 268 264 260 265 267 265 256 255 257 259 268 273 272 279 268 266 252 235 221 210 200 193 193 193 194 195 195 194 194 197 199
290 289 288 286 284 283 282 279 277 277 274 271 268 267 264 261 256 259 260 258 258 260 264 272 272 270 262 251 249 239 227 213 201 183 184 185 187 188 188 188 189 191 194
290 290 288 286 285 286 283 279 277 276 273 271 269 267 264 261 260 257 257 255 253 249 249 259 263 263 266 252 232 228 219 201 190 167 169 173 176 179 179 181 183 185 189
291 291 290 287 286 284 282 279 277 276 275 273 270 267 265 261 258 257 256 254 254 255 251 251 256 253 250 247 226 212 197 181 171 169 159 157 153 159 166 169 173 177 181
289 290 289 286 285 283 279 289 291 284 280 277 273 268 264 263 273 272 270 265 257 249 248 245 245 245 240 234 225 209 197 170 159 170 156 156 157 162 164 167 170 171 175
289 289 287 287 287 285 316 310 288 287 283 276 272 270 267 253 245 239 247 260 267 264 257 253 247 240 238 235 226 213 193 181 183 175 163 158 163 160 165 171 157 163 171
291 290 289 288 287 286 273 263 266 278 277 275 273 270 267 264 253 250 237 231 240 244 251 260 259 253 242 229 218 213 203 197 188 168 162 151 156 150 149 127 137 154 161
294 292 292 291 290 288 268 260 266 271 271 270 268 266 265 266 262 260 259 251 245 236 230 234 247 251 249 240 222 219 213 194 170 168 169 150 152 143 137 132 135 144 151
294 293 291 291 289 288 268 252 265 281 272 269 266 265 264 264 258 250 256 257 255 251 237 232 242 249 251 233 219 217 206 191 179 174 179 152 146 137 139 137 129 134 139
292 292 292 291 289 289 280 248 257 276 277 277 272 266 254 252 267 249 252 251 249 247 247 227 220 222 225 219 210 217 215 202 187 177 174 159 154 156 147 139 144 148 140